STARLINK-11549, 62832

Orbit data source: Space-Track

STARLINK-11549, 62832 is a payload satellite owned by SpaceX/Seattle (US) in LEO that was launched on Mon, 27 Jan 2025 UTC via an FALCON 9 launch vehicle from the Air Force Eastern Test Range (AFETR). Payload-class satellites include a variety of spacecraft equipped with specific instruments for various scientific and technological missions. These include communications satellites like Starlink; space stations such as the ISS; scientific satellites like the Hubble; Earth observation satellites from companies like Planet Labs, Umbra, and HawkEye 360; GPS; miniature CubeSats for education and research; and military/defense satellites.

Loading next visibility...
Identifier
62832, 2025-019D
Orbit
LEO
Last TLE update
7 hours ago
Origin
Manufacturer
SpaceX/Seattle
Mission
Operational Commercial Communications
Bus & Motor
STARLINK V2M, Unknown motor
Mass
730 kg wet, ~700 kg dry
Launch date (UTC)
2025-01-27 (3 months ago)
Launch vehicle
FALCON 9
Launch site
Air Force Eastern Test Range (AFETR)
Object type
Payload
Rocket body
Debris
Shape & HBR
Box + 2 Pan, 29 m
Radar Cross Section
36.964 m², Large (>1 m²)

Expand to show TLE details & history

TLE from 7 hours ago
0 STARLINK-11549
1 62832U 25019D   25128.90688980  .00001214  00000-0  12972-4 0  9997
2 62832  43.0021 343.3543 0003058 275.9159  84.1360 15.70835953 15949
Epoch: 2025-05-08T21:45Z
Definitive object data (Epoch: 2025-05-08T21:45:55.278Z)
Latitude
-0.00003°
Longitude
149.90328°
Altitude
356.068 km
Speed
7.698 km/s
True Right ascension
22h 53m 25s
True Declination
0° 00' 00"
Sunlit
Object was in daylight at TLE epoch
Visualization TLE readout
Latitude
-29.76093°
Longitude
110.46815°
Altitude
362.735 km
Speed
7.693 km/s
Apparent Right ascension
22h 32m 07s
Apparent Declination
-41° 05' 31"
Sunlit
Object is in partial shadow
Visualization observer readout
Local Sidereal Time
13:20:32
Azimuth
106.044° ESE
Elevation
-58.28°
Doppler factor
1
Orbital elements
Apogee altitude
360.548 km
Perigee altitude
356.428 km
Semi-major axis
6,736.625 km
Eccentricity
0.0003058
Inclination
43.0021°
RAAN
343.3543°
Arg. of periapsis
275.9159°
True anomaly
84.17086°
Mean anomaly
84.136°
Eccentric anomaly
84.15343°
Mean motion
3.92536 °/min
BSTAR
0.000012972
Orbital period
91.71 mins
Loading maneuver chart data...
Loading SW <> Apogee altitude chart data...
Loading historical data...
Loading historical data...
Loading historical data...
Loading historical data...
Loading historical data...
Loading historical data...
Loading historical data...

STARLINK-11549 Visibility forecast

Observer location: undefined°, undefined°

Span
Click to sort rows by Start time (UTC) header in descending order
Start Az.
Max El. time (UTC)
Max El. Az.
Max El.
End time (UTC)
End Az.
4 mins2025-05-09 17:49:54.309Z222.163° SW2025-05-09 17:51:54.309Z158.257° S34.579°2025-05-09 17:53:54.309Z87.273° E
4 mins2025-05-09 19:26:54.309Z289.036° WNW2025-05-09 19:27:54.309Z336.63° NNW37.744°2025-05-09 19:30:54.309Z68.696° E
4 mins2025-05-09 21:02:54.309Z302.252° NW2025-05-09 21:04:54.309Z44.006° NE34.34°2025-05-09 21:06:54.309Z83.373° E
4 mins2025-05-09 22:38:54.309Z272.074° WNW2025-05-09 22:40:54.309Z176.679° S35.578°2025-05-09 22:42:54.309Z131.063° SE
|